Hourly Weather Chalyah

Today, 14 June, Monday

Time Temperature Precipitation Wind Pressure Humidity
00:00 +8°C° 0 mm 2 mps 604 mmHg 80%
01:00 +8°C° 0 mm 2 mps 604 mmHg 79%
02:00 +7°C° 0 mm 2 mps 604 mmHg 79%
03:00 +7°C° 0 mm 2 mps 604 mmHg 78%
04:00 +9°C° 0 mm 1 mps 605 mmHg 76%
05:00 +11°C° 0 mm 1 mps 605 mmHg 74%
06:00 +12°C° 0 mm 1 mps 606 mmHg 73%
07:00 +14°C° 0 mm 1 mps 606 mmHg 63%
08:00 +16°C° 0 mm 2 mps 607 mmHg 53%
09:00 +18°C° 0 mm 2 mps 608 mmHg 44%
10:00 +18°C° 0 mm 3 mps 608 mmHg 43%
11:00 +19°C° 0 mm 3 mps 608 mmHg 42%
12:00 +20°C° 0 mm 3 mps 609 mmHg 41%
13:00 +20°C° 0 mm 3 mps 609 mmHg 42%
14:00 +20°C° 0 mm 3 mps 609 mmHg 42%
15:00 +20°C° 0 mm 3 mps 609 mmHg 43%
16:00 +20°C° 0 mm 2 mps 608 mmHg 49%
17:00 +19°C° 0 mm 2 mps 608 mmHg 55%
18:00 +18°C° 0 mm 2 mps 608 mmHg 60%
19:00 +16°C° 0 mm 2 mps 607 mmHg 65%
20:00 +14°C° 0 mm 2 mps 607 mmHg 70%
21:00 +12°C° 0 mm 2 mps 606 mmHg 74%
22:00 +12°C° 0 mm 2 mps 606 mmHg 74%
23:00 +12°C° 0 mm 2 mps 606 mmHg 75%

Tomorrow, 15 June, Tuesday

Time Temperature Precipitation Wind Pressure Humidity
00:00 +10°C° 0 mm 2 mps 606 mmHg 75%
01:00 +10°C° 0 mm 2 mps 606 mmHg 75%
02:00 +10°C° 0 mm 2 mps 605 mmHg 75%
03:00 +9°C° 0 mm 2 mps 605 mmHg 75%
04:00 +12°C° 0 mm 1 mps 605 mmHg 74%
05:00 +13°C° 0 mm 1 mps 606 mmHg 73%
06:00 +14°C° 0 mm 1 mps 606 mmHg 72%
07:00 +15°C° 0.5 mm 1 mps 606 mmHg 71%
08:00 +16°C° 0.5 mm 2 mps 607 mmHg 71%
09:00 +17°C° 0.5 mm 2 mps 607 mmHg 70%
10:00 +18°C° 0.5 mm 2 mps 607 mmHg 65%
11:00 +19°C° 0.5 mm 3 mps 607 mmHg 60%
12:00 +20°C° 0.5 mm 3 mps 608 mmHg 55%
13:00 +20°C° 0.1 mm 3 mps 608 mmHg 51%
14:00 +21°C° 0.1 mm 2 mps 608 mmHg 47%
15:00 +21°C° 0.1 mm 2 mps 608 mmHg 43%
16:00 +21°C° 0 mm 2 mps 608 mmHg 48%
17:00 +21°C° 0 mm 1 mps 607 mmHg 53%
18:00 +21°C° 0 mm 1 mps 607 mmHg 59%
19:00 +19°C° 0 mm 1 mps 607 mmHg 62%
20:00 +16°C° 0 mm 1 mps 606 mmHg 65%
21:00 +14°C° 0 mm 1 mps 606 mmHg 68%
22:00 +13°C° 0 mm 2 mps 606 mmHg 67%
23:00 +13°C° 0 mm 2 mps 606 mmHg 65%

Day after tomorrow, 16 June, Wednesday

Time Temperature Precipitation Wind Pressure Humidity
00:00 +13°C° 0 mm 2 mps 606 mmHg 63%
01:00 +13°C° 0 mm 2 mps 606 mmHg 64%
02:00 +13°C° 0 mm 2 mps 606 mmHg 65%
03:00 +12°C° 0 mm 1 mps 606 mmHg 67%
04:00 +14°C° 0 mm 1 mps 606 mmHg 67%
05:00 +15°C° 0 mm 1 mps 607 mmHg 67%
06:00 +16°C° 0 mm 1 mps 607 mmHg 67%
07:00 +19°C° 0 mm 1 mps 608 mmHg 62%
08:00 +19°C° 0 mm 2 mps 608 mmHg 57%
09:00 +21°C° 0 mm 2 mps 609 mmHg 52%
10:00 +22°C° 0.1 mm 3 mps 609 mmHg 50%
11:00 +22°C° 0.1 mm 3 mps 609 mmHg 48%
12:00 +24°C° 0.1 mm 3 mps 609 mmHg 46%
13:00 +24°C° 0 mm 3 mps 609 mmHg 45%
14:00 +25°C° 0 mm 3 mps 609 mmHg 43%
15:00 +25°C° 0 mm 3 mps 609 mmHg 42%
16:00 +24°C° 0 mm 2 mps 609 mmHg 49%
17:00 +23°C° 0 mm 2 mps 608 mmHg 55%
18:00 +21°C° 0 mm 2 mps 608 mmHg 62%
19:00 +19°C° 0 mm 2 mps 608 mmHg 67%
20:00 +17°C° 0 mm 2 mps 607 mmHg 73%
21:00 +15°C° 0 mm 2 mps 607 mmHg 78%
22:00 +14°C° 0 mm 2 mps 607 mmHg 77%
23:00 +14°C° 0 mm 2 mps 606 mmHg 75%

17 June, Thursday

Time Temperature Precipitation Wind Pressure Humidity
00:00 +14°C° 0 mm 2 mps 606 mmHg 74%
01:00 +13°C° 0 mm 2 mps 606 mmHg 73%
02:00 +13°C° 0 mm 2 mps 606 mmHg 72%
03:00 +13°C° 0 mm 2 mps 605 mmHg 71%
04:00 +14°C° 0 mm 2 mps 606 mmHg 67%
05:00 +15°C° 0 mm 2 mps 606 mmHg 63%
06:00 +16°C° 0 mm 2 mps 607 mmHg 59%
07:00 +18°C° 0 mm 2 mps 607 mmHg 52%
08:00 +20°C° 0 mm 2 mps 607 mmHg 44%
09:00 +22°C° 0 mm 3 mps 608 mmHg 36%
10:00 +22°C° 0 mm 3 mps 608 mmHg 37%
11:00 +24°C° 0 mm 3 mps 608 mmHg 37%
12:00 +24°C° 0 mm 3 mps 609 mmHg 37%
13:00 +24°C° 0 mm 3 mps 609 mmHg 38%
14:00 +24°C° 0 mm 3 mps 609 mmHg 39%
15:00 +24°C° 0 mm 2 mps 609 mmHg 40%
16:00 +23°C° 0.2 mm 2 mps 609 mmHg 46%
17:00 +21°C° 0.2 mm 2 mps 608 mmHg 52%
18:00 +21°C° 0.2 mm 1 mps 608 mmHg 58%
19:00 +19°C° 0.1 mm 1 mps 608 mmHg 63%
20:00 +16°C° 0.1 mm 1 mps 608 mmHg 68%
21:00 +14°C° 0.1 mm 2 mps 608 mmHg 73%
22:00 +14°C° 0 mm 2 mps 607 mmHg 73%
23:00 +14°C° 0 mm 2 mps 607 mmHg 73%

18 June, Friday

Time Temperature Precipitation Wind Pressure Humidity
00:00 +13°C° 0 mm 2 mps 607 mmHg 72%
01:00 +13°C° 0 mm 2 mps 607 mmHg 72%
02:00 +13°C° 0 mm 2 mps 607 mmHg 72%
03:00 +13°C° 0 mm 2 mps 607 mmHg 72%
04:00 +13°C° 0 mm 2 mps 608 mmHg 72%
05:00 +14°C° 0 mm 2 mps 608 mmHg 72%
06:00 +15°C° 0 mm 2 mps 609 mmHg 72%
07:00 +18°C° 0.1 mm 1 mps 609 mmHg 67%
08:00 +19°C° 0.1 mm 1 mps 610 mmHg 61%
09:00 +21°C° 0.1 mm 1 mps 610 mmHg 55%
10:00 +21°C° 0.2 mm 2 mps 610 mmHg 52%
11:00 +23°C° 0.2 mm 2 mps 611 mmHg 50%
12:00 +23°C° 0.2 mm 2 mps 611 mmHg 47%
13:00 +23°C° 0.2 mm 2 mps 611 mmHg 46%
14:00 +23°C° 0.2 mm 2 mps 611 mmHg 45%
15:00 +23°C° 0.2 mm 2 mps 611 mmHg 44%
16:00 +22°C° 0.1 mm 1 mps 611 mmHg 50%
17:00 +21°C° 0.1 mm 1 mps 611 mmHg 57%
18:00 +20°C° 0.1 mm 1 mps 611 mmHg 63%
19:00 +18°C° 0 mm 1 mps 611 mmHg 69%
20:00 +16°C° 0 mm 2 mps 610 mmHg 75%
21:00 +13°C° 0 mm 3 mps 610 mmHg 82%
22:00 +13°C° 0 mm 2 mps 610 mmHg 82%
23:00 +13°C° 0 mm 2 mps 610 mmHg 82%

19 June, Saturday

Time Temperature Precipitation Wind Pressure Humidity
00:00 +13°C° 0 mm 2 mps 610 mmHg 82%
01:00 +12°C° 0 mm 2 mps 610 mmHg 81%
02:00 +12°C° 0 mm 2 mps 610 mmHg 80%
03:00 +12°C° 0 mm 2 mps 610 mmHg 79%
04:00 +13°C° 0 mm 2 mps 610 mmHg 77%
05:00 +14°C° 0 mm 1 mps 611 mmHg 76%
06:00 +15°C° 0 mm 1 mps 611 mmHg 74%
07:00 +18°C° 0 mm 1 mps 612 mmHg 66%
08:00 +20°C° 0 mm 1 mps 612 mmHg 59%
09:00 +20°C° 0 mm 2 mps 613 mmHg 51%
10:00 +21°C° 0 mm 2 mps 613 mmHg 49%
11:00 +23°C° 0 mm 2 mps 613 mmHg 47%
12:00 +24°C° 0 mm 3 mps 613 mmHg 45%
13:00 +24°C° 0.1 mm 3 mps 613 mmHg 45%
14:00 +24°C° 0.1 mm 3 mps 613 mmHg 46%
15:00 +24°C° 0.1 mm 2 mps 613 mmHg 47%
16:00 +23°C° 0 mm 2 mps 613 mmHg 51%
17:00 +21°C° 0 mm 2 mps 612 mmHg 55%
18:00 +22°C° 0 mm 1 mps 612 mmHg 60%
19:00 +20°C° 0 mm 1 mps 612 mmHg 64%
20:00 +18°C° 0 mm 1 mps 612 mmHg 68%
21:00 +15°C° 0 mm 1 mps 611 mmHg 72%
22:00 +14°C° 0 mm 1 mps 611 mmHg 73%
23:00 +14°C° 0 mm 1 mps 611 mmHg 75%
Show more

We Need Your Consent

Meteoprog and our Service Providers may store and access personal data such as cookies, device identifiers or other similar technologies on your device and process such data to personalise content and ads, as well as provide social media features and to analyse the traffic.

  • Store and/or access information on your device

    Cookies, device identifiers or other information can be stored or accessed on your device for the purposes indicated above.

  • Personalised ads and content, ad and content measurement, audience insights, and products development

    Ads and content can be personalised based on a profile. More data can be added to better personalise ads and content. Ad and content performance can be measured. Insights about the audience who saw the ads and content can be derived. Such data can be used to develop or improve user’s experience, systems and software.

By clicking ‘I Agree’ you will allow the use of indicated cookies, device identifiers, web beacons or other similar technologies. Your settings can be changed in the browser on your device.

For certain purposes, legitimate interests may be relied on, rather than consent. You can read more about this in our Privacy and Cookie Policy.